Theta_e
339 341 343 343 343 343 343 343 343 344 344 345 346 346 347 348 349 349 351 352 351 350 351 350 349 349 350 350 350 352 353 354 355 355 355 356 356 356 357 357 357 357 359 358 357 358 357 355 354 354 354 354 352 350 350 348 347 347 348 353 350 348 343 341 341 341 341 345 342 342 348 351 355 353 352 353 356 358 360 363 364 364 364 363 365
338 338 341 342 343 343 343 342 344 342 343 344 344 345 347 348 348 349 351 351 351 351 351 351 351 350 350 350 351 351 353 354 353 354 354 355 356 356 356 356 356 356 359 358 358 356 355 355 355 355 355 356 356 355 353 355 353 350 347 345 346 345 341 343 339 339 337 335 339 339 346 345 350 348 350 351 353 358 358 361 363 363 363 364 364
334 336 338 340 341 342 342 342 342 343 343 344 345 345 346 347 349 350 351 351 351 352 352 351 351 353 352 351 352 351 354 356 356 356 356 354 355 355 356 356 355 355 355 359 357 357 356 355 355 356 357 357 357 353 351 350 350 349 347 345 344 343 345 344 341 339 340 342 342 342 335 336 346 346 347 349 351 354 357 358 360 361 361 363 364
332 333 335 338 339 340 341 341 342 343 343 343 344 345 346 348 348 349 350 351 351 352 354 353 353 353 354 353 353 353 352 355 356 356 354 354 353 354 355 355 355 354 355 355 358 357 357 356 356 355 356 357 354 352 350 348 349 350 348 347 345 342 340 340 354 342 344 340 338 335 336 334 331 338 339 341 346 352 354 355 358 357 359 361 363
332 332 334 336 337 338 339 341 342 341 342 343 343 345 346 347 348 349 350 351 351 354 354 353 354 352 352 352 354 352 352 352 351 349 350 353 353 352 353 355 355 355 355 355 357 357 357 357 356 356 355 355 354 351 348 347 347 349 347 349 344 343 339 341 345 347 343 343 343 334 330 331 332 334 334 340 343 346 349 353 355 356 357 357 360
332 332 334 335 337 338 339 340 341 341 341 343 344 346 347 347 348 349 350 351 351 352 354 353 353 350 348 346 345 345 345 345 345 346 346 348 350 353 353 354 354 355 355 355 356 359 357 357 357 356 355 356 355 351 348 347 349 350 348 347 344 342 345 341 339 346 349 351 341 344 344 337 334 334 334 337 341 347 346 350 353 357 356 356 357
333 334 334 335 336 337 338 339 340 340 342 343 344 345 346 347 348 349 350 350 351 352 353 353 351 350 348 348 347 345 345 345 348 349 349 349 351 351 352 353 354 354 355 355 356 358 358 357 356 356 355 355 358 354 349 348 348 348 350 346 345 350 343 343 340 340 342 343 345 340 343 342 341 337 335 334 334 342 341 344 347 351 353 354 355
332 332 334 335 336 337 337 339 340 341 342 343 343 344 345 346 348 348 350 351 351 352 352 352 350 349 348 348 348 346 345 345 346 348 349 351 349 350 351 351 353 354 354 355 356 356 359 358 357 356 355 355 355 354 349 348 348 350 353 348 349 349 344 343 341 337 343 341 350 343 345 349 342 340 338 337 336 333 337 337 344 346 349 352 353
333 332 333 334 335 336 337 338 340 341 342 342 342 343 345 346 348 348 349 350 350 351 352 351 352 350 348 348 347 348 346 346 347 349 349 350 347 348 348 349 350 353 354 354 355 356 359 358 357 355 354 354 360 355 351 349 347 346 349 347 347 348 344 344 346 342 335 338 341 341 342 344 342 340 337 341 341 333 333 333 338 342 345 348 350
333 334 334 335 336 337 338 339 339 340 341 343 343 343 344 345 346 347 347 349 350 350 352 350 351 351 348 347 346 346 347 346 345 344 346 346 346 346 347 348 348 350 352 354 354 355 355 358 357 355 354 353 359 358 353 351 349 348 346 345 346 347 346 351 343 343 339 340 340 342 342 342 339 337 337 337 336 336 336 335 336 336 338 343 346
332 333 334 335 337 337 338 337 338 339 340 341 342 342 343 344 345 346 347 348 350 350 351 350 350 350 348 347 346 346 346 345 343 342 343 344 344 344 345 346 347 348 350 353 353 354 354 356 356 355 354 357 359 358 355 351 349 347 346 347 352 348 347 350 353 350 345 344 341 342 343 339 340 336 339 336 337 336 335 335 336 339 338 337 343
332 332 333 334 335 336 337 336 337 338 339 339 341 342 343 343 344 345 346 347 348 349 350 350 349 349 349 348 347 347 346 345 343 343 342 342 343 343 345 346 347 348 351 351 352 352 354 353 355 355 355 354 354 357 356 354 353 349 347 346 347 348 349 354 351 350 347 345 343 341 342 340 339 339 338 340 338 340 337 338 336 339 337 338 341
332 332 332 333 334 334 335 335 336 336 337 338 340 341 342 343 344 344 344 346 348 348 349 349 349 349 349 348 347 347 346 346 345 344 344 343 343 344 344 344 346 347 349 349 350 351 353 352 351 351 352 354 354 354 355 355 354 351 349 348 350 350 350 351 349 348 348 345 344 344 342 341 341 341 340 340 339 340 339 338 339 337 338 338 341
332 332 332 333 334 335 336 336 336 336 337 338 339 341 341 342 343 344 344 346 347 348 348 348 348 349 349 348 348 348 346 346 345 345 345 344 344 344 344 345 345 346 347 349 351 351 352 352 352 352 353 353 355 354 354 354 354 352 351 351 349 351 351 350 349 349 348 347 346 345 345 343 343 342 342 340 339 339 338 338 341 339 337 337 339
331 332 332 333 335 336 336 336 336 336 337 338 339 340 341 341 343 344 344 345 347 347 348 347 348 348 348 349 348 347 347 347 346 347 346 345 344 344 345 346 346 347 348 350 352 352 352 352 352 352 352 352 353 354 354 354 355 354 354 351 352 350 351 351 349 349 347 348 349 348 347 346 347 347 344 343 342 342 342 342 340 338 338 335 340
330 332 332 333 335 336 336 336 336 336 338 338 339 340 341 341 343 343 343 344 346 348 347 347 347 348 348 348 348 348 350 348 348 350 348 347 346 345 345 347 347 348 350 351 351 352 351 351 353 353 353 353 353 353 354 355 354 353 352 353 351 353 353 352 352 351 350 351 350 351 350 349 350 348 346 345 345 344 344 344 342 341 337 336 336
329 331 331 332 334 336 337 337 336 337 337 338 339 340 341 342 342 342 343 344 345 346 346 346 347 346 346 347 347 347 347 347 346 347 348 348 348 347 346 347 348 349 349 351 351 352 351 351 351 352 353 354 354 354 354 354 354 354 353 352 352 353 357 354 353 352 353 352 352 351 351 351 351 351 349 347 350 350 347 346 344 342 341 338 337
329 331 332 333 334 336 337 337 337 337 338 338 340 340 344 344 344 345 344 344 344 345 346 346 346 346 346 346 347 347 347 348 348 347 348 349 348 348 348 347 347 349 350 350 351 351 351 354 351 351 352 354 354 354 354 354 355 353 352 352 352 353 353 355 355 354 353 353 354 353 353 352 353 352 351 350 351 352 348 347 346 346 345 341 339
329 330 331 332 333 335 337 337 338 338 339 340 343 343 344 344 344 344 344 345 345 346 347 347 347 347 347 347 347 347 348 348 349 349 349 349 348 349 348 348 348 349 351 351 351 350 350 350 351 350 351 353 354 353 354 354 354 353 353 352 352 352 351 351 353 354 353 353 353 353 354 353 354 352 352 351 351 351 351 349 349 347 345 344 341
329 329 331 332 333 335 337 337 337 338 339 341 343 343 343 344 345 344 345 346 346 347 348 347 347 348 348 349 349 350 350 348 349 350 349 349 350 349 349 349 348 350 350 349 349 349 350 349 349 349 349 350 352 353 354 353 352 352 351 350 352 351 350 350 350 351 353 354 353 352 353 354 354 353 353 352 352 352 351 350 349 347 348 345 346
329 330 330 332 333 334 337 338 339 340 342 343 342 342 343 344 344 345 344 345 345 347 348 348 348 348 349 350 350 350 350 351 350 351 350 350 351 353 351 350 351 350 351 350 349 349 349 349 349 350 349 350 351 351 351 352 351 351 350 350 351 351 350 350 351 350 351 352 354 353 353 354 354 352 352 351 351 351 351 351 351 347 346 346 345
330 330 331 332 333 334 336 338 339 340 341 341 342 343 343 343 343 344 345 345 345 346 347 348 349 348 348 349 352 354 353 353 352 353 352 352 352 353 353 353 351 351 351 350 350 349 349 348 348 348 349 349 349 350 350 350 349 349 349 348 348 350 349 349 349 349 349 350 352 353 353 352 353 352 352 350 350 350 349 348 348 346 345 346 347
331 331 332 332 334 334 336 338 338 339 341 342 343 342 342 343 344 345 344 344 345 346 347 348 349 348 348 350 352 355 356 356 355 355 353 353 353 353 354 353 353 353 353 351 350 349 349 349 348 349 349 349 349 348 348 348 348 346 345 346 347 347 347 347 347 347 348 350 350 351 351 352 351 351 351 351 351 350 350 349 348 346 345 345 345
332 334 334 333 334 335 336 336 337 339 341 343 343 343 343 343 344 344 344 345 346 347 348 349 348 349 350 351 351 354 356 356 355 355 355 355 355 354 355 354 354 354 352 353 351 351 350 349 349 349 348 348 346 344 346 347 347 344 342 343 343 343 343 344 344 344 345 346 347 349 350 352 353 352 352 352 351 351 350 350 344 343 344 343 345
331 332 333 334 334 334 336 336 337 338 341 343 344 344 343 344 344 344 345 346 346 348 348 349 349 349 350 350 351 353 354 354 355 356 356 357 355 354 355 354 354 353 353 352 354 353 349 347 347 346 346 346 346 347 347 349 348 346 345 344 345 344 345 345 346 346 347 346 345 345 347 350 352 349 351 350 350 348 345 346 343 344 344 344 344
330 330 332 332 333 335 336 336 337 338 340 341 343 345 345 345 345 345 345 346 347 349 349 349 349 349 349 350 351 351 352 353 354 355 355 354 354 354 353 355 353 352 352 354 351 351 349 347 348 348 347 347 347 347 348 348 348 347 347 346 346 345 346 346 347 347 346 346 343 344 346 348 347 348 349 350 350 346 345 346 345 344 344 343 342
331 331 331 332 332 333 335 336 337 338 339 340 342 344 345 345 345 346 347 347 348 349 349 349 350 350 349 350 350 351 352 352 353 352 353 352 352 352 352 352 354 353 351 346 345 346 348 350 350 350 349 348 348 347 348 348 348 349 349 348 347 346 345 346 346 346 346 346 346 346 346 345 344 345 345 346 345 344 347 347 347 345 344 343 342
331 332 331 331 331 333 334 335 336 337 339 340 341 343 345 346 345 347 348 349 350 350 350 350 350 349 349 350 351 351 352 351 351 350 350 350 351 350 350 352 353 350 346 345 346 347 348 349 348 348 349 349 347 347 347 348 349 349 349 348 347 346 346 346 346 345 345 345 346 346 344 344 345 346 346 347 347 346 345 344 344 345 344 344 343
331 331 332 332 331 332 333 334 336 337 337 339 341 342 344 346 347 348 349 349 351 350 350 350 350 349 350 350 351 351 351 352 349 347 348 349 349 350 350 351 351 348 345 347 349 349 348 346 346 347 348 348 347 346 347 347 347 348 349 347 347 347 347 345 345 345 344 344 345 346 347 345 348 351 353 352 350 349 344 342 342 343 344 344 344
329 331 333 335 335 334 334 335 336 336 337 339 341 343 344 345 346 348 349 350 350 350 349 349 349 349 350 350 350 351 349 349 346 344 346 346 347 348 348 348 348 347 345 346 347 349 349 348 346 347 348 348 347 349 350 351 351 350 348 349 349 349 347 346 345 344 344 344 346 347 348 351 353 353 353 352 352 351 347 345 342 342 343 343 342
329 331 333 336 338 337 336 336 337 338 338 340 343 344 345 346 347 348 348 350 351 349 349 349 349 349 349 349 349 349 348 347 343 344 345 345 345 345 346 346 346 346 345 346 346 345 347 349 348 347 346 346 348 349 350 344 344 349 352 349 349 348 348 347 346 344 343 345 346 347 347 348 349 348 348 349 350 350 351 351 350 349 348 346 342
327 330 335 339 340 338 337 337 338 339 340 341 343 344 345 345 347 347 348 350 350 349 348 348 349 349 349 348 349 348 345 342 342 343 344 344 345 345 345 345 345 344 344 347 346 346 347 348 347 347 346 346 347 350 341 341 346 345 349 350 350 348 348 347 347 347 348 347 347 348 348 347 346 347 347 346 347 350 350 350 350 349 348 348 348
326 331 336 337 338 338 338 339 340 341 341 342 343 344 344 345 346 346 347 348 347 347 347 347 347 348 348 348 348 346 341 339 341 342 342 343 344 345 345 345 344 344 346 347 346 347 346 346 345 344 344 345 346 348 336 340 339 340 342 349 349 348 346 347 347 347 347 347 347 347 348 347 345 348 347 343 343 344 347 349 348 346 345 346 342
327 328 331 335 338 338 338 338 339 341 342 342 344 343 342 344 344 344 345 344 344 344 344 344 345 347 348 347 347 343 340 340 340 340 341 343 344 344 344 345 345 346 345 345 345 344 345 344 344 343 343 343 343 346 336 337 337 337 339 345 347 347 346 345 344 344 345 345 345 343 345 347 343 342 342 343 342 341 343 345 345 343 343 344 345
327 328 330 332 335 338 338 339 339 341 341 341 341 342 341 341 342 342 342 341 342 342 342 344 345 346 346 346 346 345 343 340 341 341 342 343 344 345 344 344 345 345 344 343 344 343 344 344 345 344 342 341 343 340 336 336 332 333 336 346 346 345 344 344 344 345 346 346 345 345 344 344 340 340 341 342 342 341 342 343 343 342 342 342 342
329 329 328 331 333 336 338 339 341 342 341 341 340 341 341 340 341 340 340 340 341 341 342 344 344 345 346 347 347 346 346 345 343 344 344 345 345 345 345 346 344 343 343 343 342 342 343 342 342 343 342 343 344 336 334 333 330 331 344 346 343 343 342 343 343 344 346 346 345 346 346 346 344 341 344 346 347 346 343 342 341 342 342 341 342
330 331 330 331 333 335 338 340 340 340 341 340 340 341 340 339 339 340 340 340 341 342 343 345 345 345 347 348 347 347 346 346 347 346 346 346 345 346 346 344 341 341 341 340 340 342 343 341 342 342 341 341 342 334 325 325 326 330 341 343 343 343 342 342 342 343 343 344 346 350 348 347 346 345 345 335 337 343 342 341 342 341 339 338 337
332 332 332 333 335 337 341 340 339 340 340 340 340 340 339 339 340 341 341 341 342 343 345 346 345 346 347 348 348 348 347 347 347 347 347 347 346 346 346 346 341 340 340 341 342 341 342 342 342 342 342 342 342 336 323 322 324 330 342 340 340 339 339 338 337 340 341 342 344 349 347 343 343 341 330 330 335 342 338 336 335 334 336 334 332
333 332 333 335 336 339 342 342 342 340 341 342 342 342 341 340 341 342 343 342 343 345 346 346 346 347 348 348 349 349 348 348 347 347 347 346 345 345 346 345 343 342 343 342 344 342 341 341 343 343 348 346 342 335 321 322 322 326 336 338 339 338 336 334 334 337 338 339 339 340 343 339 339 333 322 324 330 339 336 335 334 332 331 331 330
335 335 336 336 339 343 344 344 343 342 344 345 345 344 344 343 344 344 343 343 344 346 348 348 347 347 347 348 349 349 348 348 347 346 346 346 345 345 344 343 342 341 342 343 346 343 341 342 343 345 342 343 342 339 330 319 320 323 332 339 337 337 334 332 332 335 334 335 335 335 334 330 319 318 317 317 320 326 334 332 331 330 328 328 328
335 336 340 339 342 347 345 345 346 347 347 347 346 345 344 345 345 344 343 345 347 348 347 347 347 347 347 348 349 349 348 348 348 346 347 347 346 345 344 343 342 342 343 343 343 341 339 338 338 340 341 343 344 339 329 317 317 319 326 337 336 335 332 331 330 332 331 332 332 332 332 332 322 318 314 312 312 317 326 330 329 329 328 327 324
339 341 341 341 346 348 348 348 349 349 349 348 347 345 345 345 344 343 344 346 346 347 347 346 346 347 347 347 347 347 349 347 347 348 347 344 344 346 346 343 342 342 341 340 342 343 339 337 337 339 342 345 349 342 331 321 317 316 319 328 335 333 332 333 331 331 331 331 331 331 331 332 322 320 317 312 309 311 316 326 326 318 318 318 323
338 339 342 345 347 347 347 348 349 349 349 348 347 345 345 344 343 343 345 346 346 346 346 345 346 347 347 347 348 350 349 349 349 348 345 343 344 345 344 343 340 340 340 339 338 338 337 337 340 342 344 345 342 340 335 329 320 314 314 317 320 328 324 333 331 331 329 329 331 331 331 330 319 311 308 310 310 310 317 322 314 314 316 316 320
339 342 345 348 347 345 343 344 345 346 346 347 347 345 345 343 343 346 346 347 346 345 345 346 347 347 347 348 349 349 349 349 348 346 345 344 343 342 342 341 340 341 340 340 337 338 337 337 340 340 342 342 340 337 335 334 329 317 314 314 315 317 321 331 333 331 331 330 329 327 325 315 308 303 304 308 311 316 320 314 312 314 316 318 323
338 340 342 343 342 340 340 339 339 341 341 342 345 346 345 343 345 347 347 346 346 346 345 345 346 347 347 348 348 348 348 348 347 347 346 344 343 344 342 341 341 338 338 339 339 342 339 338 340 339 340 340 338 335 335 335 334 327 319 317 320 322 321 320 329 328 328 326 320 313 310 310 311 310 309 311 313 316 313 311 311 314 320 323 324
337 338 340 339 339 339 338 336 336 338 338 339 341 345 344 344 347 348 347 346 347 346 346 345 346 347 347 348 346 346 346 346 345 345 345 343 344 343 341 338 338 339 339 338 341 342 341 339 340 339 340 339 337 336 332 327 326 330 327 321 319 322 329 328 327 324 322 319 317 317 319 319 322 325 330 328 328 328 325 323 319 319 321 322 325
336 337 337 336 338 338 337 335 334 336 338 339 339 340 343 346 348 348 348 347 347 347 347 346 346 346 345 345 344 344 343 341 340 340 339 338 339 341 341 339 336 337 338 341 342 341 338 338 338 338 339 339 336 331 326 323 321 322 321 322 322 321 321 323 323 321 320 321 325 329 328 322 324 325 327 328 328 329 330 330 328 325 324 325 326
334 336 337 337 336 336 335 335 334 335 337 338 339 340 343 348 350 350 348 347 347 347 345 344 344 345 345 345 348 350 338 329 324 323 323 323 325 328 326 325 324 324 331 334 335 336 336 337 338 339 339 337 334 325 318 317 316 316 318 319 319 318 316 317 318 316 316 321 326 329 330 332 332 332 331 330 330 329 329 329 329 328 328 329 330
332 334 336 336 336 336 335 335 335 335 336 337 338 341 345 348 349 348 347 347 348 348 345 343 342 344 347 349 345 339 333 326 321 317 314 313 315 319 323 320 317 315 319 325 332 331 332 334 333 332 336 334 330 322 315 310 311 307 311 314 315 313 312 315 316 312 317 325 330 330 329 329 328 328 328 328 328 328 328 328 328 328 328 328 328
332 332 333 335 337 335 335 335 334 335 336 337 338 340 344 348 348 347 347 348 347 344 341 339 340 342 344 343 339 335 332 328 323 320 317 316 315 307 310 320 318 314 307 303 309 324 325 324 317 313 317 324 321 314 306 299 297 297 298 299 299 297 298 309 310 308 322 327 327 326 326 326 326 326 326 325 325 325 325 325 325 325 324 323 323
332 332 331 332 333 336 335 334 334 336 337 337 338 339 340 342 343 342 341 340 341 341 339 337 340 339 340 339 336 334 332 328 325 323 322 321 320 315 300 303 311 310 304 298 298 301 307 315 322 314 311 309 308 302 297 296 296 296 295 295 295 296 297 297 301 319 328 326 326 324 324 325 325 325 324 323 323 322 321 321 320 319 317 317 317
Wind_Speed
12 13 13 13 13 11 11 10 10 10 10 11 11 11 11 11 10 10 9 9 8 8 7 8 8 6 5 8 8 7 6 7 6 6 5 5 6 5 5 5 5 6 6 6 6 6 6 5 4 4 3 3 4 5 5 5 5 5 3 2 4 5 4 5 4 3 3 1 1 3 2 1 2 4 4 4 4 4 3 4 4 4 4 5 5
7 8 11 12 11 12 10 9 9 11 10 11 12 13 12 12 12 11 8 9 9 9 9 8 8 8 8 7 6 6 6 7 7 6 7 5 5 6 5 5 6 6 6 6 6 6 5 4 4 4 3 4 4 5 5 5 5 4 3 3 4 4 4 0 1 2 2 1 1 3 3 3 0 1 2 3 4 4 4 4 4 5 5 5 5
9 11 12 12 14 13 11 10 10 13 12 13 13 12 11 11 10 9 9 9 9 9 8 8 7 7 7 5 7 4 4 5 5 4 4 5 5 6 6 5 6 5 6 5 5 5 5 4 5 4 4 4 4 5 5 6 5 5 5 4 3 3 3 1 1 1 1 1 2 2 2 4 3 2 1 4 4 5 4 5 5 5 6 5 6
12 12 13 13 13 12 12 11 11 10 10 10 10 12 10 10 9 10 10 10 9 9 9 9 9 7 6 5 5 5 4 4 4 4 4 5 6 6 5 5 6 6 6 6 5 5 5 5 4 4 5 4 4 5 5 5 4 4 4 5 3 3 1 1 1 3 3 4 1 0 2 1 3 2 3 5 1 3 5 5 4 5 5 4 5
13 12 12 13 13 13 13 13 11 11 11 11 11 11 10 13 12 12 10 10 9 10 10 8 6 5 4 3 3 3 1 3 3 4 5 5 4 4 6 6 6 6 6 6 6 6 5 5 5 5 5 4 4 4 5 6 5 4 5 4 5 3 3 2 2 1 2 2 4 3 1 1 3 4 2 5 1 2 4 5 4 4 4 4 4
14 14 14 14 14 13 12 12 12 12 12 12 12 13 12 11 11 11 9 9 9 10 9 8 8 8 7 6 6 5 6 5 7 7 5 5 7 5 5 6 6 6 5 6 6 5 6 6 5 5 5 4 4 5 5 4 4 4 5 6 6 5 3 3 2 2 3 2 4 3 3 2 2 2 1 3 4 3 2 3 4 5 4 5 5
11 11 11 12 13 13 13 13 14 13 13 12 11 12 13 11 12 12 11 10 10 9 10 8 8 7 9 9 9 8 8 7 5 5 5 5 4 5 5 5 6 6 6 6 6 6 5 6 6 6 6 5 4 4 5 5 5 5 3 4 6 4 4 3 4 4 1 2 3 2 2 1 3 4 2 1 3 3 2 2 3 4 5 5 6
12 12 13 14 14 15 15 15 14 14 13 11 11 11 12 12 12 12 10 10 9 9 10 10 10 9 9 9 8 8 8 7 6 6 5 4 5 5 4 5 5 6 6 6 6 6 6 6 6 5 5 5 4 5 6 6 4 2 4 4 4 5 5 4 4 3 2 2 1 3 3 1 2 2 3 3 2 1 4 2 2 3 4 6 6
13 12 13 14 14 15 15 14 15 14 12 12 12 13 13 12 12 11 10 10 9 11 11 11 10 10 10 8 8 7 7 6 5 4 5 4 6 4 5 5 5 6 6 7 7 7 6 6 6 6 5 5 4 5 5 5 5 5 4 3 5 4 4 4 2 4 4 5 3 1 1 2 0 1 1 1 2 3 4 2 4 2 2 5 6
13 14 14 14 15 15 15 15 14 13 13 13 13 11 11 10 11 12 11 10 9 11 11 11 11 9 8 8 9 7 6 5 4 5 5 5 6 6 5 5 5 5 6 7 7 7 7 6 6 7 7 5 4 5 5 5 4 5 5 6 5 4 4 4 5 4 5 4 4 4 3 2 2 2 1 1 1 0 3 3 2 3 4 4 2
12 12 13 14 14 15 13 14 14 13 11 12 11 11 11 11 12 12 13 10 10 11 11 12 11 9 9 10 10 9 7 6 5 5 5 5 6 6 6 6 5 5 4 5 6 6 6 5 5 6 5 5 5 5 5 5 5 4 4 5 5 5 4 5 4 4 3 4 4 5 6 5 5 5 4 4 3 2 0 3 4 3 3 4 3
12 12 12 12 11 11 12 13 13 13 11 11 11 11 11 11 11 13 10 10 9 10 10 10 10 10 9 10 10 9 8 7 8 8 7 7 7 7 6 5 5 4 4 4 5 5 5 5 5 5 6 6 6 5 5 5 5 4 4 4 5 4 3 3 3 4 4 4 4 4 5 4 4 5 4 5 5 4 4 4 4 2 2 4 4
12 12 12 12 13 13 13 13 12 11 12 13 13 12 12 11 13 13 12 11 10 10 11 11 10 10 10 10 10 8 8 8 8 9 7 7 7 6 5 6 5 5 5 5 5 6 5 6 6 6 6 6 5 5 5 6 5 5 5 5 4 4 4 4 4 5 5 5 6 4 3 3 5 4 3 3 3 3 4 3 2 2 4 3 2
13 13 12 13 13 13 14 13 13 12 13 14 13 12 11 11 12 13 13 11 10 9 10 10 11 11 11 10 10 9 9 9 9 9 8 7 7 7 7 7 7 7 6 7 7 6 6 7 7 7 6 6 6 6 6 6 6 5 5 5 5 5 3 5 5 5 4 6 4 4 4 5 4 3 4 3 3 3 3 4 4 2 1 3 2
11 11 12 13 13 14 13 13 12 13 14 13 12 11 11 11 11 12 10 7 6 8 9 11 11 11 10 10 9 8 9 9 8 8 7 7 6 6 7 6 6 6 7 7 6 7 7 6 8 7 7 7 6 6 6 6 6 5 5 6 5 5 5 4 5 5 5 6 5 5 5 4 4 3 3 5 3 4 4 4 4 4 3 2 3
10 10 10 11 12 12 12 11 12 12 13 12 13 12 11 12 10 6 10 7 2 2 5 6 7 7 8 9 10 8 7 7 6 6 7 7 7 7 7 6 6 6 6 6 7 7 7 7 7 7 7 7 7 7 7 6 6 6 6 5 6 3 5 6 6 5 5 6 6 5 4 4 4 3 4 4 4 4 4 3 4 4 4 5 2
10 11 11 11 10 11 12 12 11 11 11 12 12 13 12 7 14 13 9 11 12 12 8 6 6 6 6 7 7 8 9 9 8 8 7 6 5 6 6 6 6 6 6 6 6 7 7 7 7 7 7 7 7 7 7 7 6 6 6 6 6 5 5 7 6 6 6 5 4 5 5 4 4 4 3 4 5 4 4 4 5 6 5 4 3
11 12 12 14 13 12 11 11 12 13 13 13 10 8 17 17 15 8 8 13 11 9 8 9 10 11 10 10 10 10 10 9 9 8 7 6 6 6 5 5 6 6 6 6 7 7 7 8 7 8 7 6 7 6 6 6 5 4 5 5 5 4 5 5 5 5 6 4 5 4 4 4 4 3 4 4 4 5 4 4 5 5 5 6 5
8 10 10 10 11 13 13 13 13 13 13 10 16 18 15 16 17 19 18 16 15 12 11 10 10 8 8 11 12 11 9 8 8 7 7 7 7 6 6 7 7 6 7 6 6 6 6 7 7 7 6 7 6 6 7 6 6 6 6 5 5 5 5 6 6 5 5 5 5 6 4 5 4 4 4 4 4 4 5 4 4 3 5 6 6
9 10 11 12 12 12 13 13 13 12 9 14 16 15 17 16 16 15 15 14 12 10 9 10 9 8 8 7 8 7 8 8 7 7 6 6 6 6 6 7 8 6 7 7 6 6 7 8 7 8 8 8 8 8 7 6 5 5 5 5 4 5 6 7 6 5 4 5 6 6 6 5 5 4 4 4 4 4 4 4 4 4 5 5 5
9 10 10 11 11 11 11 12 12 7 11 14 15 17 17 16 16 16 16 14 13 13 11 11 9 9 8 6 7 7 8 7 6 6 5 6 5 6 7 7 5 6 5 6 7 8 8 8 9 8 9 8 8 8 7 7 6 6 6 6 6 5 6 6 6 7 6 6 6 7 7 7 5 5 5 4 4 5 4 4 3 3 4 4 5
7 8 9 10 10 10 10 9 7 11 13 14 13 13 13 14 14 14 14 14 14 12 11 11 9 8 9 8 7 7 6 5 6 5 5 5 5 6 7 6 6 6 5 6 8 8 7 8 7 8 8 9 8 8 7 6 6 7 6 4 5 6 6 8 6 8 8 6 6 7 7 6 5 6 5 5 5 5 4 3 3 3 3 4 4
8 8 8 8 9 9 10 10 11 14 14 14 13 14 14 14 13 13 14 15 14 14 12 10 9 9 10 8 6 5 4 5 5 5 5 6 7 7 6 6 6 5 5 7 8 7 6 6 6 6 8 7 6 3 4 6 7 9 12 11 11 10 7 7 7 9 9 7 6 6 7 6 4 5 6 5 5 5 4 4 4 1 2 4 4
3 3 4 5 5 5 5 7 9 9 10 13 13 12 11 11 13 13 15 15 13 10 9 9 9 9 8 7 7 6 6 6 7 6 6 6 7 7 6 6 6 4 6 5 4 2 3 6 9 10 11 10 12 10 4 1 4 6 5 5 4 6 9 13 13 12 11 10 10 8 6 6 5 6 6 5 4 5 2 2 4 3 3 3 4
3 4 3 3 4 6 7 9 10 11 10 11 11 11 12 12 12 13 14 14 12 9 8 9 9 9 7 8 8 8 8 8 8 7 7 6 8 7 5 4 4 4 3 1 4 6 8 7 3 5 3 4 4 2 3 3 2 3 4 4 5 4 4 5 6 4 4 7 11 12 11 8 5 6 6 5 5 3 4 4 4 3 5 5 2
4 4 5 6 7 5 5 6 7 9 11 10 10 10 11 11 13 14 13 11 10 8 8 8 8 8 8 9 8 8 9 9 6 4 5 8 8 4 2 1 2 2 1 6 9 7 5 4 4 4 5 3 4 6 5 3 2 3 3 3 3 3 4 5 3 2 4 5 7 10 10 11 8 7 7 6 2 6 5 5 6 5 3 2 4
4 6 5 4 4 8 9 9 10 10 10 10 10 10 10 11 11 11 10 10 8 8 7 7 7 8 7 8 9 9 7 4 6 5 6 7 6 4 4 4 3 4 8 10 6 3 2 2 3 5 6 8 7 4 2 2 3 3 3 3 3 3 3 3 1 2 3 3 5 6 5 6 6 8 11 8 2 4 5 6 3 2 3 4 5
1 3 5 8 9 8 9 10 9 9 9 8 8 9 11 11 12 9 5 4 3 4 4 5 6 7 7 7 6 5 5 7 6 6 8 6 3 2 1 3 6 9 11 7 4 8 5 2 3 5 3 1 1 2 3 3 2 3 3 3 3 3 3 3 2 4 4 5 4 4 5 4 4 6 6 7 7 5 2 4 3 5 6 6 5
0 1 3 4 7 9 9 10 10 9 9 7 7 6 5 5 5 6 6 7 7 7 6 6 5 6 6 5 5 5 7 8 7 5 6 5 5 1 4 4 6 7 7 6 5 1 2 0 3 3 4 6 4 3 3 2 4 3 2 2 3 3 2 3 4 4 5 5 6 5 6 6 6 9 11 8 6 2 2 5 9 7 4 3 5
5 6 5 4 5 4 3 3 5 8 8 8 8 8 8 9 8 8 8 7 8 9 9 9 9 8 6 5 5 5 8 9 8 4 5 5 4 2 4 3 4 6 6 5 3 3 3 3 3 5 5 3 4 3 4 7 6 3 2 3 3 3 3 4 5 6 7 6 6 5 5 8 10 12 11 10 5 9 11 8 5 1 3 6 7
5 5 6 6 5 3 1 1 0 1 4 5 6 7 7 8 7 8 8 7 8 8 8 7 6 6 6 6 6 6 8 9 9 5 6 5 3 1 2 2 4 6 5 5 5 6 6 5 5 3 4 3 2 1 2 2 1 3 3 3 2 2 3 4 5 6 7 7 6 5 4 5 6 6 4 4 7 4 3 13 16 14 10 8 8
5 4 5 5 6 5 4 3 4 5 5 6 6 6 7 7 7 7 6 6 5 5 6 6 5 4 4 4 4 7 10 10 9 8 8 2 1 1 1 2 1 6 2 2 3 3 4 5 5 4 3 3 3 4 2 2 1 2 5 3 2 3 4 5 6 7 6 6 6 6 4 2 2 5 3 3 4 6 7 8 9 8 6 9 8
5 4 4 4 4 4 4 4 4 5 5 4 5 6 6 6 6 4 5 6 6 5 4 4 4 5 5 5 5 8 10 12 9 7 4 3 4 2 3 3 2 5 6 4 2 1 2 3 4 4 3 1 2 3 3 3 3 3 4 7 4 5 5 5 5 5 5 5 5 5 4 2 2 7 2 3 3 4 8 11 10 6 8 9 7
2 3 2 1 3 5 5 5 5 5 5 5 5 6 5 5 5 5 5 4 5 4 4 4 3 4 5 5 5 8 9 12 10 10 7 5 5 6 4 4 3 4 5 5 4 3 3 4 4 2 1 1 2 3 3 1 4 6 5 5 2 2 4 3 3 4 5 4 3 4 4 3 2 5 2 3 4 4 6 7 6 2 3 6 7
3 2 2 1 3 5 6 6 5 6 6 7 6 6 6 6 5 6 5 6 5 5 4 4 3 3 5 6 7 7 11 13 10 8 7 7 7 6 7 6 5 5 4 4 5 4 3 3 3 2 2 2 1 2 3 3 3 5 7 3 2 2 2 3 4 4 5 5 5 4 3 2 2 7 5 5 5 5 6 7 7 6 4 4 5
5 5 4 4 5 6 6 6 5 6 6 6 7 7 7 6 5 5 5 5 5 5 5 4 4 4 5 6 7 7 9 10 11 8 7 7 6 6 6 5 4 3 4 4 3 2 3 3 3 4 3 1 2 2 4 2 5 3 3 2 2 2 2 3 4 4 3 3 2 2 1 2 3 5 6 8 5 4 4 5 6 5 3 1 2
4 6 6 4 3 5 5 5 4 4 5 5 6 7 7 7 6 5 5 6 6 6 5 4 5 5 6 6 7 7 7 9 9 9 9 7 6 6 7 6 6 5 5 4 4 4 4 4 4 2 1 1 2 4 4 5 3 2 2 2 2 1 1 2 2 3 3 4 3 2 3 3 2 2 3 2 3 3 3 4 4 3 2 1 1
2 3 4 3 3 3 5 6 6 5 5 5 5 6 7 7 7 7 7 6 6 6 5 5 5 6 6 7 7 6 7 8 10 10 9 7 5 4 6 6 7 7 6 5 5 3 2 2 3 3 4 2 2 4 4 5 3 1 2 2 1 2 3 3 4 5 4 4 6 10 7 4 4 3 3 3 2 3 2 1 1 3 4 1 1
0 3 4 2 3 3 3 4 6 8 7 7 7 6 6 7 6 6 5 5 5 5 5 5 5 5 5 6 7 7 6 7 8 9 7 7 6 5 4 4 3 3 3 2 2 3 3 3 3 3 5 3 4 4 5 5 6 4 2 2 3 3 4 4 4 4 4 4 4 5 8 6 4 3 4 5 5 3 2 2 1 2 4 4 1
4 4 4 2 0 3 4 4 5 7 7 8 7 7 7 7 6 5 4 4 3 3 3 3 4 4 4 5 6 8 7 7 7 6 6 6 5 4 3 2 2 2 1 1 0 1 2 2 1 2 3 4 4 4 5 6 5 5 4 4 3 4 4 3 3 3 3 3 4 4 4 5 3 3 2 3 2 2 1 1 1 2 4 5 2
4 3 3 1 1 2 4 5 5 7 7 6 7 8 7 6 6 6 4 3 3 3 4 4 3 4 4 5 5 6 6 5 5 5 5 5 4 4 4 3 3 2 2 2 2 1 2 2 2 2 3 3 3 5 5 6 5 6 6 5 4 4 2 2 2 2 2 2 4 4 4 5 4 3 1 1 1 3 3 0 0 2 3 3 3
4 5 4 1 1 3 4 4 6 7 7 7 6 7 7 7 7 7 5 4 5 5 4 4 5 4 4 4 4 4 5 4 4 5 5 4 3 3 3 4 3 4 3 3 2 2 2 2 2 2 3 3 6 9 5 5 6 7 8 7 4 3 2 2 2 2 4 4 5 6 5 4 5 5 5 4 4 2 3 2 3 4 3 3 3
6 6 2 3 4 5 5 5 5 6 6 7 8 9 9 8 7 6 6 6 5 5 5 5 5 5 4 4 4 5 5 4 4 4 5 4 4 4 4 4 5 4 4 4 3 2 3 4 4 4 4 4 5 5 8 6 6 7 8 6 5 3 2 2 2 4 4 5 4 5 5 8 9 8 7 7 6 4 4 4 4 4 4 3 3
4 7 6 6 5 5 4 5 4 4 4 5 7 8 7 9 8 7 7 6 6 6 6 6 5 5 4 5 5 5 5 5 5 5 5 5 4 4 4 3 4 4 3 3 2 1 2 2 3 4 4 4 4 4 6 7 6 7 6 5 3 1 2 2 2 3 3 4 4 4 6 10 10 9 8 7 6 6 5 4 6 5 3 3 2
8 9 9 8 7 5 3 1 1 4 4 4 5 8 8 7 7 8 8 7 7 7 6 6 6 5 5 5 5 5 5 4 4 4 5 4 4 3 3 2 3 3 2 3 2 2 2 1 2 3 3 3 3 4 4 6 8 9 8 6 5 4 2 2 2 2 3 3 6 9 11 10 9 7 6 5 4 6 8 8 7 6 5 2 2
7 8 10 11 9 7 6 4 1 2 3 3 3 6 11 8 8 8 8 8 8 7 6 6 6 5 5 6 7 6 5 5 5 4 4 3 4 3 3 2 3 3 2 2 2 1 1 1 2 2 2 3 3 3 4 3 5 5 5 7 6 8 8 6 4 3 7 8 8 9 9 9 7 6 3 4 4 3 3 3 1 1 1 2 3
8 8 10 11 11 10 9 7 6 4 5 6 6 4 6 8 9 7 7 8 7 7 6 6 5 5 5 5 6 5 5 5 5 4 4 4 4 3 4 4 3 3 2 1 1 1 1 2 2 2 2 3 4 4 4 4 4 4 5 6 7 6 9 8 6 6 8 6 8 7 6 6 4 8 9 6 8 8 6 4 3 2 1 2 2
4 3 6 9 11 11 9 9 7 7 7 5 3 2 4 7 9 7 6 7 7 7 6 5 5 5 4 4 5 8 7 5 5 5 5 5 5 4 4 4 2 1 1 1 2 2 2 2 2 3 3 4 4 4 5 5 6 6 5 5 5 5 6 5 6 6 7 6 5 5 6 6 6 7 6 6 6 7 9 8 6 4 3 4 5
2 4 3 6 7 7 8 8 6 4 1 2 1 3 4 9 9 8 6 7 7 7 6 6 5 5 4 4 4 5 5 5 5 7 8 7 5 5 4 4 4 2 2 2 4 3 3 3 4 4 3 4 4 4 4 4 4 5 5 4 5 5 4 5 6 8 6 4 5 7 8 9 9 9 9 9 9 9 9 9 9 9 8 8 8
8 10 13 9 2 6 6 6 4 2 2 2 3 3 4 8 10 9 8 7 7 6 6 5 4 4 4 4 4 4 5 5 5 6 7 9 12 10 7 4 4 7 8 5 4 4 3 4 5 5 5 3 3 3 3 4 4 5 5 5 2 3 3 4 7 9 3 6 8 8 8 8 8 8 8 8 8 8 8 8 8 9 9 9 8
7 10 11 13 9 6 5 2 2 3 4 2 5 2 6 7 10 11 11 10 8 6 5 4 3 3 3 4 4 4 4 5 5 5 7 8 7 8 12 11 9 8 9 11 12 11 10 7 6 5 7 11 9 6 4 4 5 5 5 6 6 5 5 5 6 5 8 8 7 7 6 6 7 6 7 7 7 7 8 7 7 7 7 8 8
Wind_Direction
202 197 196 198 199 196 193 189 189 186 185 182 180 183 184 184 180 189 185 177 174 174 178 178 183 188 196 200 203 202 199 203 206 208 202 201 203 205 205 212 208 219 223 211 215 228 233 230 229 244 231 232 231 242 241 240 221 216 242 251 265 277 278 189 185 130 128 99 337 35 358 335 208 188 204 195 202 205 198 208 207 207 208 215 220
191 196 200 200 201 199 192 188 181 181 188 181 186 186 185 182 186 187 178 179 180 180 181 184 188 190 187 196 193 195 195 201 211 209 211 201 202 205 206 208 207 210 220 212 219 212 222 226 225 235 226 230 233 240 249 238 236 218 213 271 207 231 259 302 106 130 16 129 52 334 338 329 330 274 199 209 198 199 203 206 199 211 211 217 222
194 198 194 197 198 196 193 192 189 189 184 186 188 182 182 185 189 180 182 181 184 182 180 189 190 191 188 178 185 182 196 204 204 197 193 202 202 204 206 202 204 211 211 210 204 208 212 215 229 224 226 224 246 257 251 251 224 222 190 208 265 220 255 271 169 96 146 75 114 73 354 356 327 341 284 228 201 194 192 201 202 209 215 209 218
198 197 195 196 196 193 193 193 193 188 183 186 183 185 184 188 184 184 185 186 185 186 187 191 189 185 187 170 175 179 183 195 203 183 187 196 210 202 203 200 200 210 203 208 213 211 205 217 228 230 238 215 226 261 262 252 234 228 192 208 201 258 339 298 110 158 145 149 302 204 230 131 344 301 315 289 247 212 195 205 201 214 209 206 207
199 197 195 193 193 193 192 194 186 187 188 186 184 185 189 189 187 185 184 186 188 187 187 178 169 160 160 121 135 155 88 152 170 218 202 205 211 194 210 199 199 205 204 203 209 210 210 214 220 237 240 233 223 237 244 240 233 219 195 187 195 188 224 275 321 63 213 181 133 106 77 354 229 255 6 286 20 226 228 214 210 213 204 209 208
194 195 194 191 191 192 193 189 187 191 192 191 188 188 187 188 185 184 183 184 187 187 179 167 178 172 164 169 178 185 201 190 204 212 199 201 214 206 196 195 198 204 202 206 208 206 210 212 216 227 231 231 225 235 246 255 247 219 197 191 199 208 171 154 202 309 310 264 193 174 170 170 208 233 61 304 313 243 311 229 217 212 212 213 215
198 196 193 190 193 191 191 190 191 191 196 190 187 189 190 186 185 183 185 187 185 181 174 173 176 179 184 191 194 193 198 214 213 215 206 218 214 206 207 193 197 202 208 204 209 211 212 217 217 221 226 220 223 236 252 240 231 215 179 186 207 166 144 166 189 225 352 257 232 207 199 222 153 126 239 107 336 317 263 253 235 220 222 227 228
189 192 192 192 191 191 192 193 191 196 192 185 189 187 189 187 183 186 187 186 184 174 177 179 181 185 189 198 199 200 199 208 203 216 217 218 207 220 202 209 203 205 212 210 208 208 212 218 217 220 226 221 206 218 229 238 232 230 190 215 182 175 174 169 207 195 187 255 190 189 210 174 184 284 175 197 174 251 309 303 239 241 225 233 234
190 190 192 191 192 194 194 192 197 193 185 186 189 190 189 186 184 184 187 185 181 177 180 185 186 187 191 194 203 209 202 204 199 208 212 207 222 226 214 213 207 211 212 214 212 210 210 214 211 216 220 225 216 219 234 231 212 181 177 172 199 208 195 184 155 206 181 219 174 250 117 144 76 331 242 127 147 160 265 272 300 324 254 244 239
199 194 192 193 193 193 193 194 191 191 190 190 190 186 185 181 182 182 189 186 181 182 183 186 189 186 190 196 204 209 200 194 180 202 207 193 217 221 223 218 213 209 213 217 219 215 217 213 208 210 218 224 220 218 228 232 224 201 198 200 209 210 223 193 197 208 208 219 208 174 149 114 58 82 119 141 24 139 233 273 265 308 329 302 219
198 197 196 196 194 192 188 189 192 190 188 187 185 185 182 182 184 186 192 186 181 184 182 188 189 187 194 197 202 207 202 189 187 208 202 192 213 218 211 219 212 214 205 215 219 218 219 217 215 214 214 220 224 215 220 219 218 211 210 198 201 203 202 208 228 217 212 208 195 185 183 183 179 186 193 203 179 172 344 272 270 213 237 285 283
192 194 196 195 191 191 187 191 188 188 182 183 186 182 182 185 183 190 189 186 185 185 186 190 189 194 197 196 201 207 198 196 201 210 202 202 206 215 214 212 217 217 210 211 220 220 222 226 223 220 219 216 222 215 219 223 224 200 184 199 212 214 209 193 202 205 204 211 209 201 206 196 190 196 204 169 174 199 186 241 260 275 263 219 271
186 191 191 189 188 186 187 190 185 181 184 184 184 183 184 183 184 185 191 188 187 184 189 191 191 197 197 197 201 200 199 201 205 211 203 203 204 214 206 213 210 208 208 208 219 213 216 227 226 223 228 223 222 218 226 224 220 212 203 208 207 202 209 200 192 215 197 195 211 211 219 207 214 219 170 176 195 158 178 217 277 196 246 284 279
185 185 187 187 187 187 187 185 183 184 186 186 184 182 181 183 182 186 193 186 184 185 191 192 198 199 198 197 197 193 198 202 207 210 207 202 197 209 205 206 206 207 200 208 212 202 207 217 219 221 222 224 219 218 221 222 213 213 216 215 219 226 214 212 221 224 207 225 213 200 207 211 225 193 194 177 176 151 180 213 243 275 230 260 284
181 182 184 186 187 184 185 184 183 184 185 186 185 184 180 181 180 188 183 179 182 195 194 197 201 202 200 201 197 195 199 202 208 209 203 199 199 203 212 207 206 211 209 216 205 201 207 213 216 219 220 220 220 220 217 217 216 216 216 225 229 220 220 213 226 210 212 214 214 214 214 215 222 206 187 206 189 200 199 194 175 256 289 269 273
176 177 183 186 184 183 182 184 184 184 184 184 185 182 181 185 173 112 70 65 79 221 221 216 222 217 208 201 202 200 205 204 208 210 210 202 200 202 208 210 214 211 217 214 210 199 206 212 214 221 222 219 218 220 219 214 209 207 215 212 230 211 215 214 224 210 223 216 213 207 204 225 215 209 203 207 201 194 196 175 183 183 225 280 302
174 174 177 179 183 185 182 182 183 183 181 186 186 184 183 130 80 90 152 188 196 199 191 180 189 200 214 216 210 205 205 204 204 208 205 201 199 201 205 208 212 214 217 215 216 208 211 212 216 223 225 224 223 222 218 220 213 209 210 213 224 223 220 222 218 215 224 212 209 199 204 217 222 209 213 214 206 197 195 190 182 193 186 220 274
177 173 174 178 177 179 182 183 182 185 186 187 174 98 71 79 106 137 198 218 219 204 195 197 198 200 197 198 204 208 208 208 206 204 198 192 200 202 204 208 211 211 214 218 218 215 215 215 217 225 227 223 225 223 219 221 205 215 218 222 228 219 226 236 229 222 225 213 218 216 204 217 215 200 212 212 207 204 200 202 197 195 170 199 207
169 171 174 179 179 178 179 184 186 187 186 154 95 100 126 145 161 177 194 206 207 205 203 208 209 211 203 201 200 204 208 212 211 208 196 197 197 194 201 211 213 213 215 219 217 219 217 219 217 221 219 220 216 216 214 214 205 216 214 219 214 203 219 234 234 222 230 217 222 227 218 231 221 218 214 215 214 201 214 212 213 168 185 196 198
174 176 180 180 181 183 179 179 182 184 161 116 135 149 157 163 172 185 196 202 206 204 201 207 208 213 217 209 208 205 205 208 208 204 205 204 201 197 204 209 212 205 210 212 216 219 216 216 211 216 216 214 212 216 207 212 203 221 225 226 220 195 210 229 240 227 231 221 219 228 225 225 222 232 239 232 219 215 211 214 200 184 188 194 173
177 177 179 181 182 183 184 182 181 146 117 141 157 167 171 173 177 182 192 198 203 205 200 210 201 207 211 208 207 202 205 204 202 201 208 210 206 208 212 217 210 214 200 202 216 222 221 215 215 213 213 210 209 212 205 202 202 218 222 226 231 205 214 231 231 240 227 226 222 225 226 225 217 223 226 235 239 232 218 215 192 176 192 185 185
177 179 177 181 183 184 183 180 139 127 147 158 168 170 175 179 178 182 191 196 201 203 202 209 205 205 202 200 203 206 205 196 197 181 190 194 209 216 218 213 212 216 196 208 218 223 222 219 214 216 216 213 214 216 204 194 206 218 224 229 228 223 233 246 244 248 242 222 219 218 226 229 207 222 231 236 236 245 233 216 195 190 203 212 200
178 178 183 181 180 179 176 166 154 159 164 164 166 175 181 180 174 183 188 200 203 203 198 197 199 201 203 197 195 197 167 174 184 182 190 198 210 222 217 215 213 206 195 211 223 225 226 221 219 222 224 224 228 252 345 359 1 7 359 347 331 314 305 293 271 258 251 249 234 224 231 229 216 226 231 238 234 239 231 221 215 202 355 348 341
168 166 176 178 168 158 147 144 156 161 160 166 175 177 174 177 183 184 196 200 202 203 191 192 200 205 192 177 190 180 172 176 187 194 201 208 215 221 216 215 215 202 209 220 236 285 338 1 4 360 356 1 28 36 10 206 153 149 182 232 286 323 324 314 314 317 325 321 299 290 269 235 223 227 234 233 225 222 235 51 75 134 169 206 193
131 142 137 124 146 159 165 164 168 171 173 176 174 173 176 182 185 192 201 200 199 192 183 191 197 197 179 181 187 183 186 186 188 182 197 210 222 222 210 208 184 212 208 68 48 36 68 96 174 188 163 120 136 173 232 252 204 171 181 189 190 184 198 243 261 273 327 317 305 287 279 274 243 226 236 233 228 129 126 153 156 176 192 216 236
144 135 140 163 177 168 158 173 178 179 179 177 174 176 181 184 193 196 200 198 198 182 187 185 187 189 188 185 189 192 199 198 179 140 174 209 217 202 111 107 151 184 41 46 45 54 83 146 179 121 133 158 194 208 204 187 180 174 171 193 205 195 207 216 205 172 193 223 260 280 293 307 302 278 261 245 171 152 172 176 198 202 210 215 237
162 173 175 159 161 184 182 180 185 185 185 180 174 177 181 188 196 202 204 200 190 181 181 177 178 187 191 195 191 199 196 135 106 156 205 217 212 159 160 183 99 71 50 61 58 314 243 192 137 143 161 169 185 202 194 220 194 197 191 191 200 203 221 254 138 184 229 211 223 261 277 262 279 297 297 307 340 248 210 220 240 284 268 242 233
77 156 177 186 192 187 184 186 186 192 188 183 180 180 183 186 193 195 186 167 141 159 170 177 175 188 200 201 191 172 130 109 128 176 216 222 232 140 94 62 75 76 88 112 187 232 223 155 154 162 148 101 80 189 176 194 247 249 256 263 271 259 252 257 236 242 242 249 232 191 233 258 239 237 250 258 239 243 24 18 342 240 223 223 236
337 256 239 221 203 197 192 190 192 184 183 169 160 159 151 153 156 169 168 171 156 159 168 174 182 194 200 181 164 155 114 119 135 202 241 236 244 185 71 60 82 108 124 152 197 301 57 205 275 251 152 164 188 249 302 254 248 244 212 278 239 228 215 239 252 253 242 251 255 234 214 211 226 248 258 262 247 160 159 215 232 230 238 252 263
5 356 348 337 321 313 287 215 187 186 176 168 164 162 166 167 170 170 173 171 159 175 176 182 189 188 165 161 152 128 116 123 135 162 248 250 259 82 102 120 120 118 135 172 175 175 172 194 250 274 264 168 148 178 221 241 248 246 189 217 205 189 202 218 233 254 265 260 261 258 257 272 291 302 315 335 305 191 199 225 248 161 223 229 231
8 4 353 355 3 25 50 48 38 163 180 169 163 159 158 162 169 174 179 176 175 179 181 178 186 165 152 144 141 128 112 109 116 178 231 241 252 314 86 155 141 124 145 184 209 217 213 192 201 242 290 312 301 216 266 128 215 262 230 213 223 220 239 247 252 260 267 267 266 262 272 290 291 301 311 302 266 304 268 232 235 234 225 219 224
357 358 6 15 26 25 45 85 115 127 141 154 154 151 153 163 160 164 156 144 155 162 175 186 167 135 127 127 129 112 102 109 145 192 213 196 332 8 130 201 130 97 112 191 196 210 203 190 177 182 236 285 319 302 116 224 241 3 353 325 293 283 273 263 266 272 275 288 293 294 287 294 281 288 262 253 323 337 286 261 257 257 260 263 262
331 349 25 33 48 49 48 77 97 116 123 124 136 138 145 145 146 130 126 147 154 152 147 132 117 132 131 131 133 117 120 135 154 182 205 193 205 171 189 203 212 138 153 170 186 157 170 149 150 162 197 234 265 218 156 257 314 23 340 319 290 268 263 263 275 283 286 290 301 313 335 335 325 287 293 60 19 306 290 269 265 275 272 260 252
279 307 315 16 74 74 70 78 91 91 93 92 90 110 110 113 120 119 123 118 121 116 128 131 119 121 125 126 109 106 124 132 160 183 178 197 203 197 182 193 195 156 139 134 145 167 176 178 170 158 167 203 212 159 159 301 354 356 304 267 241 239 248 254 257 262 264 265 281 311 325 351 94 275 281 143 173 254 272 270 275 280 265 278 281
223 250 273 102 110 113 112 110 113 118 117 111 108 122 124 121 132 133 121 123 122 125 130 117 127 130 120 113 103 117 131 149 168 178 179 189 199 162 155 169 172 158 150 159 166 173 194 177 149 140 194 224 214 22 280 31 36 246 239 215 220 254 284 293 290 283 286 293 306 312 314 308 242 270 264 247 206 214 248 271 287 295 295 296 300
199 194 214 188 164 150 146 147 153 147 143 137 140 141 132 126 123 121 123 127 132 138 142 145 147 140 126 122 127 132 141 153 165 173 175 185 181 164 159 155 150 145 153 159 158 159 169 172 182 183 193 146 221 314 34 94 205 183 157 151 223 225 236 246 261 292 308 312 316 307 245 259 209 239 264 261 255 208 247 279 289 293 299 320 306
206 167 188 225 198 156 151 140 135 131 131 127 131 133 127 124 125 122 127 136 140 145 154 153 144 138 134 134 144 151 150 151 155 160 163 167 170 157 150 145 149 159 158 175 185 187 201 190 189 197 169 196 291 61 132 163 114 128 140 151 203 189 19 26 18 2 351 21 18 10 45 17 353 344 313 213 249 280 292 288 301 349 69 68 330
158 136 138 171 184 167 147 141 134 113 105 113 115 121 125 129 132 138 139 143 148 150 151 152 153 146 147 149 153 151 151 149 147 147 148 152 156 155 160 155 154 159 165 185 182 172 219 235 219 215 207 183 149 129 145 100 78 31 122 132 85 56 52 33 15 18 15 26 27 23 51 36 29 48 99 107 209 119 114 84 348 343 322 315 274
258 134 137 171 188 159 139 120 121 117 115 115 114 117 116 120 124 129 133 140 149 151 155 159 153 141 138 146 149 150 151 147 143 144 143 144 154 162 159 147 141 134 135 150 150 149 161 196 219 217 223 168 129 104 101 89 66 30 71 69 60 57 55 36 15 15 12 17 10 10 30 45 45 66 51 49 43 83 139 120 356 310 299 293 276
42 40 33 6 227 147 131 131 116 120 128 126 129 127 112 107 116 121 130 134 144 155 147 130 130 125 129 129 145 150 147 142 138 134 141 143 139 137 141 97 75 97 91 109 147 112 145 128 102 100 72 92 116 103 98 81 66 43 47 73 53 58 45 30 25 21 9 6 3 359 5 31 40 37 56 74 74 54 124 101 50 310 300 295 67
93 83 81 38 299 130 131 136 125 128 134 134 136 122 117 121 124 128 140 145 122 112 106 103 111 127 135 146 148 141 132 129 136 140 136 130 128 128 134 135 142 128 108 106 105 95 79 71 35 50 76 102 126 113 97 87 71 59 55 80 71 70 63 44 30 357 358 343 337 338 335 345 3 341 351 355 28 30 29 94 241 254 267 323 342
117 118 100 77 102 85 110 125 131 135 136 136 128 121 128 135 135 144 140 111 107 109 114 127 136 137 139 127 103 92 112 125 123 117 105 100 106 115 116 135 134 131 112 104 126 119 97 78 69 84 103 93 102 109 115 86 78 67 55 59 88 71 58 53 11 4 350 344 334 322 317 321 350 338 311 273 262 255 290 260 238 233 272 296 273
132 117 129 146 135 125 128 127 136 139 141 146 141 139 139 136 135 133 125 129 114 117 120 120 126 128 124 116 114 118 113 111 112 110 115 114 119 119 121 131 132 137 139 142 148 141 127 114 106 102 100 88 83 91 101 102 101 94 86 72 63 78 355 48 35 9 343 323 316 306 296 312 321 309 295 286 273 259 272 245 241 249 234 257 253
136 132 133 142 126 114 119 132 128 121 112 128 141 139 133 132 133 135 131 129 129 124 124 127 132 124 109 98 99 96 100 102 114 112 115 119 119 125 121 122 134 129 125 116 104 132 126 120 118 116 113 102 89 94 78 86 93 95 97 97 100 58 338 25 10 341 322 309 312 320 308 304 296 288 277 267 261 251 251 245 240 241 244 233 219
164 147 134 126 132 133 124 97 64 122 114 102 120 136 134 133 143 141 141 136 133 132 123 125 121 112 98 94 86 87 92 95 94 117 120 121 113 118 93 67 93 97 106 105 112 115 101 122 114 114 117 102 87 81 72 69 80 91 77 69 46 45 59 340 339 340 332 328 304 290 292 296 295 286 270 251 253 239 237 253 258 270 274 244 236
167 149 147 138 129 136 138 131 75 72 113 140 155 147 138 146 148 147 141 134 131 125 120 117 118 107 107 100 89 83 82 84 80 75 81 93 116 101 98 86 75 81 80 83 48 65 71 88 67 73 101 104 85 82 67 48 26 38 53 40 39 29 25 24 18 347 341 325 309 317 330 344 352 5 7 13 354 349 288 247 239 345 341 309 312
180 169 146 143 149 157 159 156 168 185 186 198 189 199 153 141 133 132 131 122 118 114 114 109 104 101 94 94 93 94 85 67 59 59 57 52 34 58 72 55 42 44 67 100 33 349 17 20 39 51 82 89 84 65 45 31 18 17 19 17 18 14 11 12 11 357 353 352 339 343 343 348 19 42 53 49 41 31 29 33 36 17 308 285 286
324 237 171 152 154 154 158 163 179 190 195 204 192 143 150 127 117 120 119 110 104 105 104 98 94 92 85 95 108 104 94 68 47 36 32 23 21 30 56 51 44 25 51 71 72 77 70 81 91 76 85 78 88 69 38 21 22 22 19 19 22 19 13 5 356 351 338 331 323 335 8 25 26 33 31 35 38 45 49 47 40 23 350 327 322
310 289 239 180 155 145 148 161 182 195 1 358 135 165 151 117 113 112 111 101 96 92 90 85 85 84 97 100 88 96 93 93 78 66 58 46 27 19 55 69 43 5 311 78 102 95 85 76 69 59 83 87 71 62 47 42 55 50 46 28 21 15 353 354 345 335 331 307 6 28 24 24 28 27 29 27 26 27 33 35 36 34 33 33 33
31 4 335 325 49 111 131 154 168 103 57 360 252 176 124 112 112 109 101 87 78 73 73 69 70 88 93 89 83 91 101 105 104 102 92 69 54 51 30 56 61 43 47 30 29 91 92 105 91 57 32 58 88 112 103 66 54 51 49 54 32 359 337 333 337 315 339 39 42 40 35 30 28 30 29 26 22 23 23 24 26 28 27 24 23
89 72 16 350 344 41 56 64 54 60 57 31 283 227 109 98 97 92 85 76 67 67 70 60 56 62 92 97 103 106 114 116 121 120 113 109 92 56 49 47 58 72 67 66 66 65 63 62 106 116 76 77 97 106 93 69 52 43 39 33 28 8 5 345 339 18 55 47 45 44 35 32 30 31 33 29 26 26 25 26 27 27 28 21 17